Location: Dorl’ovtsi
(42.5167°N, 23.8667°E)
Time: 09:24:44
(UTC+00:00)

Daily predictions for brighter satellites

Satellite Brightness Start Highest point End
(mag) Time Altitude Azimuth Time Altitude Azimuth Time Altitude Azimuth
Cosmos 1697 Rocket 2.8 17:58:14 10° NNW 18:03:53 84° WSW 18:09:28 10° SSE
Cosmos 1741 Rocket 4.4 18:00:34 10° N 18:05:45 51° ENE 18:10:53 10° SE
ADEOS 4.4 18:04:32 10° SE 18:09:11 34° ENE 18:13:51 10° N
IRAS Rocket 4.4 18:04:14 10° SSE 18:09:35 61° ENE 18:15:00 10° N
Cosmos 1302 Rocket 4.5 18:06:56 10° SSE 18:11:39 38° ESE 18:16:24 10° NE
CZ-4C R/B 2.1 18:08:39 10° SW 18:12:38 66° NW 18:17:41 10° NNE
ISS -2.2 18:09:47 10° W 18:12:57 39° NNW 18:16:07 10° NE
Cosmos 2016 Rocket 4.5 18:07:26 10° SSE 18:13:13 40° E 18:18:56 10° NNE
Cosmos 2173 Rocket 4.0 18:07:26 10° S 18:13:31 70° E 18:19:42 10° NNE
Cosmos 724 4.3 18:08:16 10° SSW 18:14:17 75° ESE 18:20:13 10° NE
SL-16 R/B 4.2 18:13:12 10° N 18:16:26 15° NE 18:19:39 10° E
USA 305 3.1 18:16:22 10° NW 18:20:23 51° NNE 18:23:56 10° ESE
NOSS 3-3 (C) 4.1 18:20:32 10° S 18:25:07 37° ESE 18:30:23 10° NE
COSMOS 2406 4.3 18:21:18 10° SSE 18:25:48 24° ESE 18:30:17 10° NE
SL-08 R/B 3.9 18:21:56 10° NNE 18:26:24 37° E 18:30:45 10° SSE
DELTA 2 R/B (1) 3.7 18:21:16 10° WSW 18:26:43 56° SSE 18:32:09 10° E
USA 306 4.1 18:25:13 10° W 18:28:30 32° NW 18:31:02 10° NNE
Meteor 1-31 Rocket 2.7 18:25:44 10° S 18:29:12 74° WSW 18:32:40 10° NNW
Terra 1.9 18:27:59 10° SSE 18:32:37 64° ENE 18:37:16 10° N
Cosmos 1980 Rocket 2.2 18:28:36 10° NNW 18:34:20 77° ENE 18:39:50 11° SSE
BREEZE-M DEB (TANK) 3.8 18:33:06 10° WNW 18:36:22 44° SSW 18:44:47 12° SE
Cosmos 1850 Rocket 4.1 18:31:29 10° NNW 18:36:40 82° WSW 18:41:50 10° SSE
MetOp-B 4.2 18:33:03 10° SSE 18:38:22 72° ENE 18:43:42 10° N
CZ-4 R/B 1.7 18:35:49 10° S 18:39:22 57° W 18:42:57 10° NNW
CSL-04 Rocket 4.5 18:34:28 10° S 18:39:50 53° W 18:45:09 10° NNW
Sich 1 Rocket 4.1 18:35:41 10° SSW 18:39:58 62° W 18:44:20 10° N
Helios 1A Rocket 2.2 18:37:27 10° NNE 18:40:37 87° WNW 18:43:45 10° SSW
Cosmos 2333 Rocket 3.9 18:37:42 10° N 18:41:52 20° NE 18:46:02 10° E
Cosmos 1743 2.0 18:39:56 10° N 18:42:56 63° E 18:45:16 15° SSE
Cosmos 2061 Rocket 4.4 18:37:28 10° SSE 18:43:16 43° E 18:49:09 10° NNE
CBERS 1 LM4 rocket 4.5 18:39:39 10° SSE 18:44:34 84° ENE 18:49:45 10° NNW
Delta 2 Rocket 4.1 18:46:28 10° SW 18:48:39 18° S 18:48:59 18° SSE
Cosmos 1607 4.2 18:47:25 10° SW 18:53:33 75° NW 18:59:50 10° NNE
Cosmos 1802 Rocket 4.1 18:49:09 10° S 18:55:20 81° W 19:01:31 10° N
Cosmos 1782 2.4 18:52:14 10° S 18:55:44 89° E 18:59:16 10° N
CZ-4B R/B 3.3 18:51:50 10° SSE 18:57:30 83° WSW 19:03:10 10° NNW
Ariane Rocket 4.4 18:57:02 16° ESE 18:59:44 24° ENE 19:03:43 10° NNE
Cosmos 2360 Rocket 4.1 18:56:12 10° N 18:59:48 17° NE 19:03:23 10° E
BREEZE-M DEB (TANK) 3.3 18:58:22 10° W 19:02:40 38° NNW 19:04:48 10° NE
Spot 2 Rocket 3.5 19:01:13 18° SSE 19:04:58 69° ENE 19:09:59 10° N
ATLAS 3B R/B 3.9 19:05:42 10° NW 19:12:39 39° WSW 19:19:10 10° S
IRS-1A Rocket 4.5 19:07:58 13° S 19:13:10 78° WSW 19:19:06 10° NNW
Longmarch 3A Rocket 4.2 19:12:18 10° SW 19:13:39 11° SSW 19:14:43 10° SSW
Cosmos 2219 Rocket 4.3 19:10:53 10° NNE 19:13:47 14° NE 19:16:41 10° ENE
ERS-1 Rocket 3.9 19:09:24 10° S 19:14:11 45° W 19:18:59 10° NNW
Gbstr 26 Del rocket 3.5 19:10:39 10° WNW 19:15:33 52° SW 19:17:40 27° SSE
Okean O Rocket 1.5 19:15:30 23° SSE 19:18:07 86° ENE 19:22:26 10° NNW
Cosmos 2151 3.6 19:16:14 10° N 19:20:02 35° ENE 19:21:10 29° ESE
Cosmos 1455 Rocket 4.4 19:16:20 10° SSW 19:20:27 39° WNW 19:24:36 10° N
MOS 1-B 4.3 19:20:38 20° SSE 19:24:47 89° WSW 19:30:37 10° NNW
Cosmos 2233 Rocket 4.1 19:19:18 10° SSW 19:25:30 75° W 19:31:42 10° N
Cosmos 1461 2.4 19:22:48 12° SSW 19:26:11 64° ESE 19:29:51 10° NE
Cosmos 1992 Rocket 4.1 19:23:26 10° SSW 19:28:38 79° WNW 19:33:51 10° NNE
Cosmos 2237 4.2 19:23:37 10° NNW 19:29:23 86° WSW 19:32:37 27° SSE
CZ-2C R/B 4.0 19:30:01 17° NE 19:30:01 17° NE 19:31:29 10° NNE
CZ-4B R/B 3.9 19:27:58 30° ESE 19:29:49 44° ENE 19:34:22 10° N
Cosmos 2322 Rocket 3.5 19:26:25 10° N 19:31:17 29° NE 19:33:58 20° E
Cosmos 2082 Rocket 3.2 19:26:15 10° SW 19:31:45 49° WNW 19:37:18 10° NNE
Cosmos 1544 Rocket 3.4 19:31:34 29° S 19:33:44 74° E 19:38:04 10° NNE
Milstar 3 4.3 19:30:20 10° WSW 19:35:38 22° S 19:37:46 20° SSE
Cosmos 1437 Rocket 2.4 19:36:11 53° SSE 19:36:46 64° E 19:40:19 10° NNE
Cosmos 2369 4.0 19:31:21 10° NNW 19:37:02 66° WSW 19:40:17 26° S
Okean-O 3.0 19:35:08 24° S 19:37:36 59° W 19:41:56 10° NNW
Cosmos 2228 4.3 19:33:48 10° SW 19:37:38 37° WNW 19:41:28 10° N
Cosmos 909 Rocket 4.5 19:31:45 10° SW 19:38:03 63° NW 19:44:26 10° NNE
USA 186 2.2 19:38:59 40° WSW 19:39:17 42° W 19:41:56 10° NNW
IRS-1C Rocket 4.3 19:39:15 34° SE 19:41:22 57° ENE 19:46:32 10° N
USA 305 3.9 19:42:06 10° WNW 19:45:27 26° SW 19:45:56 25° SW
ISS -0.9 19:48:03 10° NW 19:50:24 18° N 19:52:46 10° NE
Cosmos 1758 Rocket 3.7 19:49:31 10° NNW 19:53:56 73° W 19:55:25 40° S
CZ-4B R/B 2.3 19:54:43 78° SSW 19:54:53 82° WSW 19:58:19 10° NNW
Cosmos 1486 Rocket 4.5 19:50:28 10° N 19:55:33 47° ENE 19:57:02 37° ESE
Cosmos 2278 3.9 19:50:42 10° NNW 19:56:21 60° ENE 19:58:19 39° ESE
Cosmos 2084 Rocket 4.5 19:53:52 10° NW 19:57:42 34° WSW 19:58:40 30° SSW
SL-16 R/B 2.1 19:55:43 10° NNW 20:01:25 83° ENE 20:03:19 44° SSE
Cosmos 1825 Rocket 4.1 20:03:31 10° N 20:07:40 42° ENE 20:07:46 42° E
COSMOS 2406 4.0 20:04:07 10° SW 20:09:41 51° WNW 20:15:18 10° NNE
Terra 4.4 20:08:14 10° WSW 20:10:33 14° W 20:12:53 10° WNW
DELTA 2 R/B (1) 3.5 20:07:20 10° W 20:12:51 64° S 20:13:54 52° SE
Cosmos 1602 Rocket 3.6 20:14:05 10° NNW 20:18:23 70° W 20:18:56 61° SW
Cosmos 540 Rocket 3.8 20:18:42 46° E 20:18:42 46° E 20:23:26 10° NNE
Cosmos 1933 4.4 20:19:19 31° WSW 20:20:22 38° WNW 20:23:57 10° N
Cosmos 2333 Rocket 2.3 20:21:02 10° NNW 20:26:44 71° WSW 20:28:05 52° S
Cosmos 1833 4.1 20:29:39 59° SSE 20:30:26 66° ESE 20:36:02 10° NNE
Cosmos 1464 Rocket 3.9 20:28:58 40° SSW 20:31:21 80° W 20:37:32 10° N
NOSS 3-4 (A) 3.9 20:25:02 10° NNW 20:31:56 78° NE 20:34:49 43° SE
NOSS 3-4 (C) 3.9 20:25:40 10° NNW 20:32:35 77° NE 20:35:28 43° SE
Geosat 3.8 20:29:24 10° NNE 20:34:24 70° ESE 20:34:38 69° SE
Cosmos 1805 4.2 20:32:54 10° NNW 20:35:11 36° NW 20:35:11 36° NW
Cosmos 2098 Rocket 3.8 20:35:17 41° SW 20:36:33 54° W 20:40:52 10° N
Ariane Rocket 3.8 20:37:06 37° SW 20:38:20 43° W 20:43:10 10° NNW
Cosmos 1076 Rocket 3.7 20:38:50 10° N 20:42:36 66° NNE 20:42:36 66° NNE
Cosmos 2360 Rocket 2.0 20:38:52 10° NNW 20:44:34 88° WSW 20:45:21 68° SSE
USA 234 4.0 20:40:24 10° ENE 20:44:47 32° E 20:44:47 32° E
Cosmos 1536 4.4 20:44:51 10° NNE 20:46:54 25° NE 20:46:54 25° NE
Cosmos 1606 Rocket 4.1 20:49:17 48° W 20:49:36 49° WNW 20:53:48 10° N
Cosmos 2333 4.1 20:43:57 10° NNW 20:49:43 86° ENE 20:50:26 69° SE
Helios 1B rocket 3.8 20:52:03 27° NNE 20:52:03 27° NNE 20:54:02 10° N
Okean 1 4.3 20:52:40 39° NW 20:52:40 39° NW 20:55:20 10° N
Helios 1A 3.6 20:48:21 10° NNE 20:51:11 46° NNE 20:51:11 46° NNE
Cosmos 1092 Rocket 4.0 20:48:38 10° N 20:54:46 64° E 20:55:38 58° ESE
Cosmos 1763 Rocket 3.6 20:55:34 59° SW 20:56:27 73° WNW 21:01:45 10° NNE
Cosmos 2219 Rocket 2.1 20:53:01 10° NNW 20:58:43 76° ENE 20:59:14 70° ESE
Cosmos 1726 Rocket 4.1 20:59:18 49° NW 20:59:18 49° NW 21:02:50 10° N
Cosmos 990 Rocket 3.9 21:02:42 10° NNW 21:07:49 86° WNW 21:07:49 86° WNW
Cosmos 2034 Rocket 4.3 21:07:11 45° SW 21:09:02 63° W 21:15:21 10° N
RESURS DK-1 4.4 21:06:32 10° N 21:09:14 20° NE 21:09:14 20° NE
BREEZE-M DEB (TANK) 4.2 21:04:16 10° W 21:13:24 58° N 21:18:16 10° ENE
Cosmos 2322 Rocket 2.7 21:10:07 10° NW 21:15:29 45° WSW 21:15:45 45° WSW
Meteor 2-2 Rocket 4.2 21:23:51 68° WSW 21:24:21 72° W 21:30:06 10° N
Meteor 1-26 Rocket 4.5 21:25:04 54° WSW 21:25:45 58° WNW 21:31:18 10° N
Cosmos 841 Rocket 4.2 21:29:05 44° ENE 21:29:05 44° ENE 21:33:03 10° NNE
ISS -1.1 21:25:23 10° NW 21:27:26 20° N 21:27:26 20° N
Cosmos-2242 4.1 21:30:18 38° NW 21:30:18 38° NW 21:33:28 10° N
Cosmos 2279 Rocket 3.8 21:29:54 73° SE 21:30:17 76° E 21:36:33 10° N
Cosmos 44 3.6 21:27:42 10° NNW 21:32:52 71° NNE 21:32:52 71° NNE
Cosmos 2237 Rocket 4.0 21:29:11 10° N 21:33:35 23° NE 21:35:40 19° E
Cosmos 1634 Rocket 4.0 21:32:56 64° SW 21:33:42 72° W 21:39:54 10° N
CZ-2C R/B 4.2 21:30:43 10° NNE 21:34:13 55° NNE 21:34:13 55° NNE
CZ-2C R/B 4.1 21:37:19 24° ENE 21:37:59 25° ENE 21:42:10 10° NNE
Meteor 1-11 Rocket 4.4 21:33:26 10° N 21:38:45 40° ENE 21:38:54 40° ENE
COSMOS 2428 3.0 21:36:56 10° NNW 21:42:33 56° ENE 21:42:51 55° ENE
Cosmos 2227 Rocket 4.3 21:44:30 13° E 21:44:30 13° E 21:46:09 10° ENE
SL-16 R/B 4.3 21:42:00 10° WNW 21:44:41 14° W 21:45:09 13° WSW
ACS3 Solar Sail 3.8 21:41:52 10° NE 21:44:48 14° E 21:45:00 14° E
SL-08 ROCKET BODY 4.3 21:44:34 10° N 21:50:46 80° W 21:51:03 78° SW
Cosmos 372 Rocket 4.2 21:46:10 10° NNW 21:50:33 65° NW 21:50:33 65° NW
Cosmos 2221 3.7 21:54:54 39° N 21:54:54 39° N 21:57:37 10° N
Meteor 1-27 Rocket 4.4 21:56:56 43° E 21:56:56 43° E 22:02:02 10° NNE
Aureole 1 Rocket 4.2 21:54:52 10° NNW 22:00:43 56° WSW 22:00:52 56° WSW
GP-B 4.2 21:58:34 10° N 22:01:32 39° NNE 22:01:32 39° NNE
Cosmos 2266 Rocket 3.9 21:57:02 10° N 22:03:03 67° E 22:03:14 67° E
Meteor 1-14 Rocket 4.2 21:58:48 10° NNW 22:03:59 72° WNW 22:03:59 72° WNW
Cosmos 1937 Rocket 3.7 22:04:14 10° NNW 22:08:43 65° N 22:08:43 65° N
ARIANE 5 R/B 3.8 22:11:52 37° NW 22:11:52 37° NW 22:14:53 10° NNW
ALOS 2 3.7 22:13:10 40° NW 22:13:10 40° NW 22:16:09 10° NNW
ARGOS Delta rocket 4.4 22:10:12 10° N 22:15:05 58° WNW 22:15:05 58° WNW
Cosmos 2297 Rocket 2.4 22:17:12 62° ENE 22:17:12 62° ENE 22:22:09 10° NNE
CZ-2C R/B 3.2 22:15:33 10° NNE 22:21:10 80° ENE 22:21:10 80° ENE
Cosmos 1655 Rocket 4.4 22:19:55 10° N 22:25:59 51° ENE 22:26:42 48° E
Cosmos 2360 Rocket 4.5 22:25:43 10° WNW 22:27:05 12° W 22:27:05 12° W
Cosmos 2322 4.1 22:22:29 10° NNW 22:27:17 53° WNW 22:27:17 53° WNW
USA 234 3.4 22:23:06 10° NE 22:29:36 68° NW 22:32:05 40° WSW
SeaSat 1 3.5 22:34:43 37° ENE 22:35:22 39° NE 22:39:54 10° NNW
Meteor 2-10 Rocket 4.3 22:35:11 10° N 22:40:30 45° ENE 22:40:59 44° E
Cosmos 2219 Rocket 4.3 22:38:46 10° WNW 22:40:55 15° W 22:40:55 15° W
Cosmos 1814 Rocket 4.2 22:59:05 65° ENE 22:59:05 65° ENE 23:03:42 10° NNE
Lacrosse 4 Rocket 2.7 23:01:08 36° NNE 23:01:08 36° NNE 23:03:39 10° NNE
NOSS 0 Rocket 4.3 22:54:49 10° NW 23:00:06 48° W 23:00:06 48° W
SL-16 R/B 3.7 23:00:15 10° N 23:05:20 32° NE 23:08:40 18° ESE
IDEFIX/ARIANE 42P 4.1 23:08:03 10° NE 23:12:14 24° E 23:12:47 23° ESE
Cosmos 1151 Rocket 4.2 23:15:33 36° ENE 23:15:33 36° ENE 23:18:50 10° NNE
CZ-2C R/B 3.3 23:18:46 40° WNW 23:18:46 40° WNW 23:22:56 10° NNW
Cosmos 2237 Rocket 2.4 23:12:29 10° NNW 23:17:27 57° WNW 23:17:27 57° WNW
CENTAUR R/B 4.3 23:20:15 13° ESE 23:21:00 13° ESE 23:23:33 10° ENE
Cosmos 1980 4.1 23:16:36 10° NNW 23:21:16 48° W 23:21:16 48° W
Meteor 2-4 Rocket 4.2 23:23:24 46° WNW 23:23:25 46° WNW 23:28:42 10° N
In-Cosmos 22 4.1 23:23:38 73° ESE 23:23:49 74° E 23:29:26 10° NNE
COSMOS 2428 4.4 23:22:07 10° NW 23:24:49 19° W 23:24:49 19° W
Cosmos 2227 Rocket 2.1 23:26:17 78° WSW 23:26:31 80° WNW 23:32:14 10° NNE
ACS3 Solar Sail 1.5 23:21:51 10° N 23:27:51 87° WNW 23:28:30 73° SSW
Nadezhda 2 Rocket 4.4 23:21:52 10° N 23:28:02 77° E 23:29:07 61° SSE
Cosmos 158 Rocket 4.4 23:29:48 53° WNW 23:29:57 53° WNW 23:35:11 10° NNE
Okean 3 Rocket 4.0 23:27:05 10° N 23:30:53 63° N 23:30:53 63° N
Cosmos 1553 Rocket 3.9 23:35:59 66° SSW 23:36:58 83° W 23:43:25 10° N
Cosmos 2263 Rocket 2.0 23:37:50 77° SSE 23:38:10 81° ESE 23:43:46 10° NNE
BREEZE-M DEB (TANK) 3.7 23:26:16 10° WSW 23:40:51 71° NNW 23:45:07 10° ENE
MSX 4.3 23:42:37 10° NNE 23:48:16 53° E 23:49:33 44° SE
Cosmos 1805 Rocket 3.7 23:46:57 10° N 23:50:46 69° N 23:50:46 69° N
Iridium 4 Rocket 4.4 23:51:28 39° W 23:51:42 39° W 23:57:07 10° NNW
SL-08 R/B 4.4 23:47:12 10° NNW 23:53:29 70° W 23:54:33 59° SSW
Sich 1 4.1 23:49:58 10° NNW 23:52:43 34° NW 23:52:43 34° NW
